| time (UTC) | temp F | wind direction | speed MPH | gust MPH | rain 1hr in | rain 24hr in | rain mn in | humidity % | barometer mb |
| 20260510074704 | 61 | 30 | 0.0 | 2.0 | 0.00 | 0.00 | 0.00 | 88 | 1007.9 |
| 20260510074205 | 61 | 30 | 0.0 | 0.0 | 0.00 | 0.00 | 0.00 | 88 | 1007.9 |
| 20260510073704 | 60 | 30 | 0.0 | 0.0 | 0.00 | 0.00 | 0.00 | 88 | 1007.9 |
| 20260510071204 | 59 | 30 | 0.0 | 0.0 | 0.00 | 0.00 | 0.00 | 90 | 1007.9 |
| 20260510070205 | 59 | 30 | 0.0 | 2.0 | 0.00 | 0.00 | 0.00 | 90 | 1007.8 |
| 20260510064704 | 59 | 30 | 1.0 | 3.0 | 0.00 | 0.00 | 0.00 | 90 | 1007.8 |
| 20260510063705 | 58 | 30 | 1.0 | 3.0 | 0.00 | 0.00 | 0.00 | 90 | 1007.8 |
| 20260510063205 | 58 | 30 | 0.0 | 2.0 | 0.00 | 0.00 | 0.00 | 90 | 1007.8 |
| 20260510060704 | 57 | 30 | 1.0 | 3.0 | 0.00 | 0.00 | 0.00 | 91 | 1007.5 |
| 20260510060204 | 57 | 30 | 1.0 | 3.0 | 0.00 | 0.00 | 0.00 | 91 | 1007.5 |
| 20260510051705 | 57 | 30 | 0.0 | 0.0 | 0.00 | 0.00 | 0.00 | 92 | 1007.8 |
| 20260510050704 | 56 | 30 | 0.0 | 0.0 | 0.00 | 0.00 | 0.00 | 91 | 1007.8 |
| 20260510050205 | 56 | 30 | 0.0 | 0.0 | 0.00 | 0.00 | 0.00 | 91 | 1007.8 |
| 20260510043705 | 56 | 30 | 0.0 | 0.0 | 0.00 | 0.00 | 0.00 | 90 | 1007.9 |
| 20260510041705 | 56 | 30 | 0.0 | 0.0 | 0.00 | 0.00 | 0.00 | 89 | 1007.6 |
| 20260510041204 | 56 | 30 | 0.0 | 0.0 | 0.00 | 0.00 | 0.00 | 89 | 1007.6 |
| 20260510040705 | 56 | 30 | 0.0 | 0.0 | 0.00 | 0.00 | 0.00 | 89 | 1007.6 |
| 20260510040204 | 56 | 30 | 0.0 | 2.0 | 0.00 | 0.00 | 0.00 | 89 | 1007.6 |
| 20260510034205 | 57 | 30 | 0.0 | 0.0 | 0.00 | 0.00 | 0.00 | 88 | 1007.9 |
| 20260510033704 | 57 | 30 | 0.0 | 1.0 | 0.00 | 0.00 | 0.00 | 88 | 1007.9 |
| 20260510031205 | 57 | 30 | 0.0 | 0.0 | 0.00 | 0.00 | 0.00 | 86 | 1008.3 |
| 20260510030704 | 57 | 30 | 0.0 | 0.0 | 0.00 | 0.00 | 0.00 | 86 | 1008.3 |
| 20260510030205 | 58 | 30 | 0.0 | 2.0 | 0.00 | 0.00 | 0.00 | 85 | 1008.3 |
| 20260510024705 | 58 | 30 | 0.0 | 0.0 | 0.00 | 0.00 | 0.00 | 84 | 1008.3 |
| 20260510024204 | 58 | 30 | 0.0 | 0.0 | 0.00 | 0.00 | 0.00 | 84 | 1008.4 |
| 20260510023705 | 58 | 30 | 0.0 | 0.0 | 0.00 | 0.00 | 0.00 | 84 | 1008.4 |
| 20260510021704 | 58 | 30 | 0.0 | 3.0 | 0.00 | 0.00 | 0.00 | 82 | 1008.4 |
| 20260510020204 | 59 | 30 | 2.0 | 5.0 | 0.00 | 0.00 | 0.00 | 81 | 1008.4 |
| 20260510014204 | 59 | 30 | 1.0 | 6.0 | 0.00 | 0.00 | 0.00 | 79 | 1009.0 |
| 20260510013704 | 59 | 29 | 0.0 | 3.0 | 0.00 | 0.00 | 0.00 | 79 | 1009.0 |
| 20260510013204 | 59 | 29 | 2.0 | 5.0 | 0.00 | 0.00 | 0.00 | 80 | 1009.0 |
| 20260510011704 | 59 | 29 | 1.0 | 5.0 | 0.00 | 0.00 | 0.00 | 81 | 1009.0 |
| 20260510011205 | 59 | 29 | 1.0 | 3.0 | 0.00 | 0.00 | 0.00 | 81 | 1009.0 |
| 20260510004704 | 59 | 29 | 1.0 | 5.0 | 0.00 | 0.00 | 0.00 | 81 | 1009.0 |
| 20260510003705 | 59 | 29 | 1.0 | 12.0 | 0.00 | 0.00 | 0.00 | 82 | 1009.4 |
| 20260510001705 | 58 | 40 | 1.0 | 6.0 | 0.00 | 0.00 | 0.00 | 83 | 1009.4 |
| 20260510001205 | 58 | 40 | 2.0 | 3.0 | 0.00 | 0.00 | 0.00 | 83 | 1009.4 |
| 20260510000704 | 58 | 41 | 2.0 | 3.0 | 0.00 | 0.00 | 0.00 | 83 | 1009.4 |
| 20260510000204 | 58 | 42 | 2.0 | 3.0 | 0.00 | 0.00 | 0.00 | 83 | 1009.1 |
| 20260509234704 | 58 | 46 | 1.0 | 2.0 | 0.00 | 0.00 | 0.00 | 83 | 1009.0 |
| 20260509234205 | 58 | 46 | 1.0 | 2.0 | 0.00 | 0.00 | 0.00 | 81 | 1009.1 |
| 20260509233704 | 58 | 46 | 1.0 | 3.0 | 0.00 | 0.00 | 0.00 | 80 | 1009.1 |
| 20260509233205 | 58 | 46 | 1.0 | 2.0 | 0.00 | 0.00 | 0.00 | 80 | 1009.1 |
| 20260509224705 | 60 | 46 | 0.0 | 0.0 | 0.00 | 0.00 | 0.00 | 74 | 1009.4 |
| 20260509224205 | 60 | 46 | 0.0 | 2.0 | 0.00 | 0.00 | 0.00 | 73 | 1009.5 |
| 20260509223205 | 60 | 46 | 0.0 | 0.0 | 0.00 | 0.00 | 0.00 | 72 | 1009.5 |
| 20260509221704 | 60 | 46 | 0.0 | 0.0 | 0.00 | 0.00 | 0.00 | 71 | 1009.5 |
| 20260509220205 | 60 | 46 | 0.0 | 1.0 | 0.00 | 0.00 | 0.00 | 71 | 1009.4 |
| 20260509213705 | 61 | 46 | 0.0 | 1.0 | 0.00 | 0.00 | 0.00 | 71 | 1009.5 |
| 20260509213204 | 61 | 46 | 0.0 | 2.0 | 0.00 | 0.00 | 0.00 | 71 | 1009.5 |
| 20260509211705 | 61 | 46 | 0.0 | 2.0 | 0.00 | 0.00 | 0.00 | 70 | 1009.6 |
| 20260509203704 | 62 | 46 | 0.0 | 2.0 | 0.00 | 0.00 | 0.00 | 68 | 1009.7 |
| 20260509201205 | 62 | 46 | 0.0 | 0.0 | 0.00 | 0.00 | 0.00 | 66 | 1009.7 |
| 20260509200205 | 63 | 46 | 0.0 | 0.0 | 0.00 | 0.00 | 0.00 | 65 | 1009.0 |
| 20260509194705 | 64 | 46 | 0.0 | 0.0 | 0.00 | 0.00 | 0.00 | 63 | 1009.0 |
| 20260509194204 | 64 | 46 | 0.0 | 0.0 | 0.00 | 0.00 | 0.00 | 62 | 1009.0 |
| 20260509193204 | 64 | 46 | 0.0 | 0.0 | 0.00 | 0.00 | 0.00 | 62 | 1009.0 |
| 20260509190704 | 66 | 46 | 0.0 | 0.0 | 0.00 | 0.00 | 0.00 | 59 | 1009.0 |
| 20260509190205 | 66 | 46 | 0.0 | 0.0 | 0.00 | 0.00 | 0.00 | 58 | 1009.0 |
| 20260509174204 | 72 | 46 | 1.0 | 2.0 | 0.00 | 0.00 | 0.00 | 47 | 1008.8 |
| 20260509173204 | 72 | 46 | 1.0 | 5.0 | 0.00 | 0.00 | 0.00 | 46 | 1008.7 |
| 20260509171704 | 72 | 46 | 2.0 | 5.0 | 0.00 | 0.00 | 0.00 | 46 | 1008.7 |
| 20260509171204 | 72 | 46 | 1.0 | 3.0 | 0.00 | 0.00 | 0.00 | 46 | 1008.7 |
| 20260509163704 | 74 | 46 | 1.0 | 5.0 | 0.00 | 0.00 | 0.00 | 44 | 1009.0 |
| 20260509163205 | 74 | 46 | 1.0 | 5.0 | 0.00 | 0.00 | 0.00 | 44 | 1009.0 |
| 20260509161704 | 75 | 45 | 2.0 | 3.0 | 0.00 | 0.00 | 0.00 | 40 | 1009.3 |
| 20260509161204 | 76 | 49 | 1.0 | 3.0 | 0.00 | 0.00 | 0.00 | 41 | 1009.3 |
| 20260509154205 | 76 | 56 | 1.0 | 3.0 | 0.00 | 0.00 | 0.00 | 40 | 1009.4 |
| 20260509153705 | 76 | 56 | 1.0 | 3.0 | 0.00 | 0.00 | 0.00 | 41 | 1009.4 |
| 20260509151704 | 76 | 48 | 1.0 | 3.0 | 0.00 | 0.00 | 0.00 | 39 | 1009.4 |
| 20260509150704 | 76 | 45 | 0.0 | 3.0 | 0.00 | 0.00 | 0.00 | 39 | 1009.5 |
| 20260509144704 | 76 | 45 | 1.0 | 3.0 | 0.00 | 0.00 | 0.00 | 38 | 1009.5 |
| 20260509144204 | 76 | 42 | 2.0 | 3.0 | 0.00 | 0.00 | 0.00 | 42 | 1009.5 |
| 20260509140204 | 75 | 46 | 2.0 | 3.0 | 0.00 | 0.00 | 0.00 | 42 | 1009.8 |
| 20260509134204 | 76 | 47 | 2.0 | 5.0 | 0.00 | 0.00 | 0.00 | 38 | 1010.1 |
| 20260509133204 | 76 | 51 | 1.0 | 5.0 | 0.00 | 0.00 | 0.00 | 42 | 1010.1 |
| 20260509131204 | 75 | 59 | 1.0 | 5.0 | 0.00 | 0.00 | 0.00 | 39 | 1010.6 |
| 20260509130204 | 76 | 75 | 2.0 | 10.0 | 0.00 | 0.00 | 0.00 | 41 | 1010.6 |
| 20260509121704 | 76 | 44 | 0.0 | 3.0 | 0.00 | 0.00 | 0.00 | 41 | 1010.7 |
| 20260509121204 | 76 | 46 | 2.0 | 5.0 | 0.00 | 0.00 | 0.00 | 41 | 1010.7 |
| 20260509120204 | 75 | 46 | 1.0 | 5.0 | 0.00 | 0.00 | 0.00 | 41 | 1010.8 |
| 20260509114704 | 75 | 42 | 0.0 | 3.0 | 0.00 | 0.00 | 0.00 | 41 | 1011.0 |
| 20260509114204 | 74 | 42 | 1.0 | 3.0 | 0.00 | 0.00 | 0.00 | 43 | 1011.0 |
| 20260509113204 | 74 | 42 | 2.0 | 5.0 | 0.00 | 0.00 | 0.00 | 44 | 1011.0 |
| 20260509111704 | 74 | 41 | 2.0 | 3.0 | 0.00 | 0.00 | 0.00 | 45 | 1011.7 |
| 20260509110705 | 73 | 40 | 2.0 | 5.0 | 0.00 | 0.00 | 0.00 | 46 | 1011.7 |
| 20260509110204 | 73 | 39 | 1.0 | 5.0 | 0.00 | 0.00 | 0.00 | 46 | 1011.7 |
| 20260509104704 | 73 | 27 | 1.0 | 6.0 | 0.00 | 0.00 | 0.00 | 50 | 1011.7 |
| 20260509104204 | 73 | 27 | 2.0 | 5.0 | 0.00 | 0.00 | 0.00 | 50 | 1011.7 |
| 20260509103704 | 73 | 18 | 1.0 | 3.0 | 0.00 | 0.00 | 0.00 | 51 | 1011.7 |
| 20260509101704 | 73 | 32 | 2.0 | 5.0 | 0.00 | 0.00 | 0.00 | 52 | 1011.7 |
| 20260509100205 | 72 | 30 | 2.0 | 3.0 | 0.00 | 0.00 | 0.00 | 56 | 1011.7 |
| 20260509094204 | 71 | 27 | 2.0 | 5.0 | 0.00 | 0.00 | 0.00 | 56 | 1011.7 |
| 20260509090204 | 71 | 23 | 1.0 | 5.0 | 0.00 | 0.00 | 0.00 | 55 | 1012.0 |
| 20260509084704 | 70 | 22 | 2.0 | 3.0 | 0.00 | 0.00 | 0.00 | 57 | 1012.0 |
| 20260509084204 | 70 | 21 | 2.0 | 3.0 | 0.00 | 0.00 | 0.00 | 54 | 1012.0 |
| 20260509083704 | 70 | 16 | 1.0 | 3.0 | 0.00 | 0.00 | 0.00 | 54 | 1012.0 |
| 20260509083204 | 70 | 16 | 1.0 | 5.0 | 0.00 | 0.00 | 0.00 | 55 | 1012.0 |